Regional Weather Roundup
Issued by NWS

Home | Current Version | Previous Version | Text Only | Print | Product List | Glossary On
Versions: 1 2 3 4 5 6 7 8 9 10 11 12 13 14 15 16 17 18 19 20 21 22 23 24 25 26 27 28 29 30 31 32 33 34 35 36 37 38 39 40 41 42 43 44 45 46 47 48 49 50
424
ASUS44 KFWD 310503
RWRTX
NORTH TEXAS HOURLY WEATHER ROUNDUP
NATIONAL WEATHER SERVICE FORT WORTH TX
1200 AM CDT TUE MAY 31 2016

NOTE: "FAIR" INDICATES FEW OR NO CLOUDS BELOW 12,000 FEET WITH NO
SIGNIFICANT WEATHER AND/OR OBSTRUCTIONS TO VISIBILITY.

TXZ118-119-310600-
DALLAS/FORT WORTH METROPLEX

CITY           SKY/WX    TMP DP  RH WIND       PRES   REMARKS
DFW AIRPORT    MOCLDY    76  65  68 SE3       29.91S
DALLAS LOVE    CLOUDY    78  66  66 E3        29.91S
FTW MEACHAM    CLOUDY    78  66  66 SE7       29.91S
DAL-EXECUTIVE  CLOUDY    72  66  81 CALM      29.91F
FTW-ALLIANCE   CLOUDY    70  66  87 S3        29.91F
FTW-NAS-JRB    CLOUDY    77  66  68 SE5       29.92R
FTW-SPINKS     MOCLDY    71  68  90 SE3       29.93R
ARLINGTON      MOCLDY    75  68  78 CALM      29.92S
GRAND PRAIRIE  CLOUDY    76  65  70 CALM      29.93S
ADDISON        CLOUDY    78  67  70 E3        29.93F
MESQUITE       CLOUDY    71  70  96 CALM      29.92S
LANCASTER      CLOUDY    72  68  88 CALM      29.92F
$$

TXZ091>094-102>105-117-120-121-131>134-310600-
NORTH CENTRAL TEXAS

CITY           SKY/WX    TMP DP  RH WIND       PRES   REMARKS
SHRMAN/DENISON CLOUDY    69  60  72 SE5       29.94S
BRIDGEPORT     CLOUDY    72  69  92 S5        29.93F
DECATUR        CLOUDY    71  66  85 SE3       29.92F
DENTON         CLOUDY    72  67  84 E3        29.91F
MCKINNEY       CLOUDY    71  67  87 CALM      29.92F
GREENVILLE     CLOUDY    70  68  94 CALM      29.92F
ROCKWALL       CLOUDY    72  67  84 CALM      29.91F
TERRELL        CLOUDY    72  68  87 CALM      29.92S
WAXAHACHIE     CLOUDY    74  67  80 CALM      29.94R
CLEBURNE       CLOUDY    75  72  88 SE7       29.94S
GRANBURY       CLOUDY    74  68  81 S3        29.93S
$$

TXZ083>090-098>101-113>116-127>130-139>142-154-155-310600-
WESTERN NORTH TEXAS

CITY           SKY/WX    TMP DP  RH WIND       PRES   REMARKS
WICHITA FALLS  CLOUDY    72  66  81 SE10      29.90F
WF-KICKAPOO    CLOUDY    75  67  75 SE8       29.92F
VERNON         MOCLDY    75  63  66 SE10      29.90F
ABILENE        CLOUDY    78  66  66 S6        29.94R
ABILENE-DYESS  CLOUDY    77  65  65 SE6       29.92R
MINERAL WELLS  CLOUDY    73  68  84 SE8       29.91S
STEPHENVILLE   MOCLDY    73  66  78 CALM      29.97R
COMANCHE       CLOUDY    73  68  86 SE7       29.94R
BROWNWOOD      CLOUDY    73  66  78 S5        29.92F
COLEMAN        CLOUDY    74  67  80 SW6       29.95R
$$

TXZ143>147-156>162-174-175-310600-
CENTRAL TEXAS

CITY           SKY/WX    TMP DP  RH WIND       PRES   REMARKS
WACO           PTCLDY    77  67  71 S12       29.92S
WACO-MCGREGOR  CLOUDY    73  68  84 S7        29.93S
HILLSBORO      CLOUDY    74  67  78 SE6       29.93R
CORSICANA      CLOUDY    76  70  82 S5        29.94R
MEXIA          PTCLDY    73  69  88 S6        29.93R
HEARNE         CLOUDY    76  70  82 SE7       29.95S
CAMERON        PTCLDY    76  70  81 S7        29.93F
TEMPLE         CLEAR     75  69  81 SE12      29.93F
KILLEEN        MOCLDY    73  69  87 SE6       29.92F
KILLEEN-SKYLRK CLOUDY    75  69  81 SE9       29.93F
FORT HOOD      CLOUDY    74  68  83 SE8       29.91F
GATESVILLE     PTCLDY    73  66  78 SE5       29.95S
HAMILTON       CLOUDY    72  67  84 S7        29.94S
LAMPASAS       MOCLDY    73  70  89 S3        29.92F
$$

TXZ095>097-106>112-122>126-135>138-148>153-164>167-310600-
EAST TEXAS

CITY           SKY/WX    TMP DP  RH WIND       PRES   REMARKS
PARIS          CLEAR     70  61  73 E7        29.93S
SULPHUR SPRNGS CLOUDY    72  71  98 CALM      29.94F FOG
MOUNT PLEASANT CLOUDY    71  71 100 CALM      29.92F
MINEOLA        CLOUDY    72  70  94 CALM      29.94R FOG
TYLER          CLOUDY    76  69  79 S6        29.93S
LONGVIEW         N/A     72  69  90 S6        29.91F
MARSHALL       CLEAR     70  68  92 CALM      29.94F
ATHENS         CLOUDY    73  72  94 S5        29.92R
PALESTINE      CLOUDY    75  70  86 SE3       29.95R
JACKSONVILLE   CLOUDY    73  69  88 S6        29.97R
CENTER         FAIR      74  73  95 CALM      29.92F
NACOGDOCHES    PTCLDY    68  66  94 CALM      29.94F
LUFKIN         MOCLDY    70  67  90 CALM      29.95S
$$

SUPPLEMENTAL OBSERVATIONS (CENTRAL)

CITY           SKY/WX    TMP DP  RH WIND       PRES   REMARKS
$$

SUPPLEMENTAL OBSERVATIONS (WEST)

CITY           SKY/WX    TMP DP  RH WIND       PRES   REMARKS
$$

SUPPLEMENTAL OBSERVATIONS (EAST)

CITY           SKY/WX    TMP DP  RH WIND       PRES   REMARKS
$$

SUPPLEMENTAL OBSERVATIONS ARE A COLLECTION OF AUTOMATED INSTRUMENTS
THAT ARE MAINTAINED BY A VARIETY OF FEDERAL AND STATE AGENCIES.
CERTAIN ELEMENTS...SUCH AS HUMIDITY VALUES AND SUSTAINED WIND
SPEEDS...MAY BE APPROXIMATED.





USA.gov is the U.S. government's official web portal to all federal, state and local government web resources and services.